Printer-friendly version
Follow the MPC on Twitter Follow the MPC on Facebook The MPC blog
Minor Planet Center

MPEC 2005-B41 : COMET P/2004 VR8 (LONEOS)

The following Minor Planet Electronic Circular may be linked-to from your own Web pages, but must not otherwise be redistributed electronically.

A form allowing access to any MPEC is at the bottom of this page.


Read MPEC 2005-B40 Read MPEC 2005-B42


M.P.E.C. 2005-B41                                Issued 2005 Jan. 21, 22:57 UT

     The Minor Planet Electronic Circulars contain information on unusual
         minor planets and routine data on comets.  They are published
   on behalf of Commission 20 of the International Astronomical Union by the
          Minor Planet Center, Smithsonian Astrophysical Observatory,
                          Cambridge, MA 02138, U.S.A.

                  Supported in part by the Brinson Foundation
             Prepared using the Tamkin Foundation Computer Network

                              MPC@CFA.HARVARD.EDU
          URL http://cfa-www.harvard.edu/iau/mpc.html  ISSN 1523-6714

                           COMET P/2004 VR8 (LONEOS)

Observations:
    PK04V08R  C2005 01 14.71764 03 18 59.86 +17 18 19.9                 EB041104
    PK04V08R  C2005 01 14.72685 03 18 59.83 +17 18 23.2                 EB041104
    PK04V08R  C2005 01 14.73687 03 18 59.78 +17 18 26.5                 EB041104
    PK04V08R  C2005 01 14.74594 03 18 59.76 +17 18 29.7                 EB041104
    PK04V08R  C2005 01 14.88661 03 18 59.30 +17 19 19.0          17.6 N EB041213
    PK04V08R  C2005 01 14.89022 03 18 59.24 +17 19 19.9          17.6 N EB041213
    PK04V08R  C2005 01 14.89384 03 18 59.23 +17 19 21.2          17.6 N EB041213
    PK04V08R  C2005 01 16.75536 03 18 57.37 +17 30 14.8          17.7 T EB041201
    PK04V08R  C2005 01 16.76720 03 18 57.37 +17 30 18.7          17.8 T EB041201
    PK04V08R  C2005 01 16.77878 03 18 57.35 +17 30 23.0          17.8 T EB041201
    PK04V08R  C2005 01 16.81771 03 18 57.29 +17 30 36.4                 EB041A46
    PK04V08R  C2005 01 16.81943 03 18 57.33 +17 30 36.9                 EB041A46
    PK04V08R  C2005 01 16.82252 03 18 57.24 +17 30 37.6                 EB041A46
    PK04V08R  C2005 01 16.83045 03 18 57.31 +17 30 41.3                 EB041A46
    PK04V08R  C2005 01 16.83142 03 18 57.26 +17 30 41.1                 EB041A46
    PK04V08R  C2005 01 16.83336 03 18 57.27 +17 30 41.9                 EB041A46
    PK04V08R  C2005 01 20.87993 03 19 11.86 +17 55 05.4          16.6 N EB041A61
    PK04V08R  C2005 01 20.89842 03 19 11.94 +17 55 13.7          16.6 N EB041A61
    PK04V08R  C2005 01 20.91708 03 19 12.15 +17 55 19.2          16.6 N EB041A61

Observer details:
104 San Marcello Pistoiese.  Observers L. Tesi, A. Boattini, M. Tombelli,
    G. Fagioli.  Measurers G. Forti, L. Tesi, A. Boattini, M. Tombelli.
    0.60-m f/4 reflector + CCD.
201 Jonathan B. Postel Observatory.  Observer V. Pozzoli.  0.40-m f/9
    Cassegrain + CCD.
213 Observatorio Montcabre.  Observer R. Naves.  Measurer M. Campas.  0.30-m
    f/6.6 Schmidt-Cassegrain + CCD.
A46 Lelekovice.  Observer K. Hornoch.  0.35-m f/4.7 reflector + CCD.
A61 Tortona.  Observers F. Fratev, E. Mihaylova.  Measurer F. Fratev.  0.25-m
    f/4.7 reflector + CCD.

Orbital elements:
    P/2004 VR8 (LONEOS)
Epoch 2005 Aug. 18.0 TT = JDT 2453600.5
T 2005 Sept. 2.51274 TT                                 MPC
q   2.3757348            (2000.0)            P               Q
n   0.09236366     Peri.   63.09906     -0.64710224     -0.68937346
a   4.8469510      Node    71.21636     +0.51838765     -0.71101253
e   0.5098496      Incl.   20.11642     +0.55904645     -0.13865574
P  10.67
Residuals in seconds of arc
041103 699  0.3+  0.4+    041209 360  0.3-  0.2+    041219 J76  0.2-  0.3+
041103 699  0.4+  0.0     041209 A30  0.1+  0.3+    041220 048  0.2+  1.6-
041103 699  0.2+  0.1+    041209 A30  0.3-  0.6+    041220 048 (0.0   2.5-)
041103 699  0.4-  0.6+    041209 A30  0.3-  0.2+    041220 048  1.8+  1.0-
041103 644  0.2+  0.2+    041209 A30  0.2-  0.1-    041227 J78  0.3+  0.5-
041103 644  0.1-  0.2+    041210 561  0.2-  0.4+    041227 213  0.4-  1.3+
041103 644  0.2+  0.4+    041210 561  0.1-  0.4+    041227 213  0.5-  1.7+
041104 691  0.2+  0.0     041210 561  0.3-  0.4+    041230 349  0.1-  0.3-
041104 691  0.2+  0.0     041211 349  1.0+  0.6-    041230 608  1.9-  1.2+
041104 691  0.2+  0.0     041211 349  0.7+  0.6-    041230 349  0.0   0.3-
041104 703  0.0   0.7-    041211 349  0.8+  0.8-    041230 608  1.7-  0.3+
041104 699  0.1+  0.3+    041211 D70 (3.9+  2.5-)   041230 349  0.2+  0.1-
041104 703  0.0   0.3-    041211 235  0.8+  1.1+    041230 608  1.4-  0.8+
041104 699  0.1+  0.4-    041211 130  0.3+  0.0     041231 104  0.1+  0.1+
041104 703  0.4-  1.0-    041211 130  0.2+  0.1-    041231 104  0.1+  0.3+
041104 703  0.5+  1.2-    041211 130  0.1+  0.2+    041231 104  0.4-  0.2+
041104 699  0.6+  0.2+    041211 130  0.3+  0.2+    050101 349  0.2+  0.3-
041104 699  0.1+  0.5+    041211 246  0.3+  0.1+    050101 349  0.5+  0.0
041107 704  1.4-  1.2+    041211 246  0.1+  0.1-    050101 349  0.6+  0.1-
041107 704  0.7-  0.9+    041211 246  0.3+  0.1+    050101 J78  0.5-  0.3+
041107 704  0.8-  0.3-    041211 246  0.3+  0.1+    050101 170  0.0   0.1-
041110 691  0.1+  0.0     041211 204  0.1+  0.0     050101 170  0.3-  0.3+
041110 691  0.0   0.0     041211 204  0.0   0.1+    050101 170  0.0   0.0
041110 691  0.6-  1.5-    041211 204  0.0   0.2+    050102 372 (2.5+  0.2+)
041112 703  0.7+  0.4-    041211 A61  0.3+  0.8-    050102 D88  0.1+  0.1-
041112 703  0.3-  0.4+    041211 A61  0.9-  0.2-    050102 D88  0.9-  0.2-
041112 703  0.0   0.2-    041211 A61  0.0   0.4-    050102 D88  0.8+  1.1+
041112 703  0.2-  0.2+    041212 213  0.3+  0.5+    050103 A61  1.0+  1.8-
041112 703  0.0   0.2-    041212 213  0.1+  0.6+    050103 A61  0.0   1.0-
041112 703  0.9-  0.5+    041214 H42  0.0   0.2+    050103 A61  0.1-  0.8-
041112 703  0.4-  1.2-    041214 H42  0.2-  0.7-    050104 372  1.3+  0.1-
041112 703  0.0   0.6-    041214 704  0.1+  0.7-    050104 372  1.6+  1.5+
041118 704  0.3-  0.2+    041214 703  0.3+  0.6-    050105 213  0.2-  0.1+
041118 704  0.2-  0.7+    041214 704  0.3+  0.1+    050105 213  0.0   0.2+
041118 704  0.2-  1.0+    041214 703  0.4+  0.8-    050105 213  0.3+  0.2+
041118 704  0.1+  0.9+    041214 703  0.0   0.8-    050106 704  0.6+  0.8-
041118 704  0.0   0.2+    041214 704  0.1+  0.2+    050106 704  0.2+  0.5-
041118 E12  0.3-  0.4-    041214 703  0.4+  0.9-    050106 704  0.1+  0.2+
041118 E12  0.0   0.5-    041214 H42  0.1-  0.2+    050106 704  0.1-  0.8+
041118 E12  0.2-  0.0     041214 704  0.4-  0.3+    050106 704  0.1-  1.4+
041118 E12  0.6-  0.2+    041214 704  0.1-  0.3-    050107 204  0.6-  0.2+
041119 703  0.1-  0.8-    041214 H42  0.1+  0.1+    050107 204  0.3-  0.2+
041119 693  0.0   0.3+    041214 215  0.0   0.3+    050108 349  0.1-  0.2-
041119 703  0.2-  0.8-    041214 215  0.7-  0.1-    050108 349  0.3-  0.0
041119 693  0.0   0.4+    041214 215  0.1-  0.3-    050108 349  0.3-  0.5+
041119 693  0.1-  0.4+    041214 215  0.2-  0.4+    050108 J76  0.3-  0.4-
041119 693  0.1-  0.4+    041214 104  0.2-  0.4+    050108 J76  0.7-  0.5-
041119 693  0.1-  0.4+    041214 104  0.3-  0.3+    050108 J76  0.4-  0.2+
041119 703  0.4-  0.5-    041214 104  0.3-  0.3+    050108 213  0.1+  0.1+
041119 703  0.5-  0.0     041214 104  0.0   0.3+    050108 213  0.0   0.2-
041120 A57  0.4+  0.1+    041215 H42  0.1-  0.5+    050108 213  0.1-  0.1+
041120 A57  0.2+  0.0     041215 H42  0.3+  0.1-    050109 938  0.1-  0.7-
041120 A57  0.3+  0.2+    041215 H42  0.1+  0.0     050109 938  0.5+  0.6+
041120 A57  0.3+  0.2+    041215 H42  0.4-  0.2-    050111 704  0.2-  0.0
041121 130  0.2+  0.1-    041215 H42  0.0   0.0     050111 704  1.5+  0.8+
041121 130  0.3+  0.1+    041215 372  1.2-  0.9+    050111 704  0.7-  0.2+
041121 130  0.4+  0.0     041215 372  0.2+  0.8+    050111 704  0.1-  0.1-
041121 130  0.4+  0.4-    041215 213  0.2-  0.4+    050111 704  0.7-  0.9+
041126 118  0.6-  0.7+    041215 213  0.1-  0.5+    050114 104  0.8-  0.3+
041126 118  0.3+  0.3-    041215 213  0.1-  0.5+    050114 104  0.7-  0.4+
041126 118  0.7-  0.3+    041216 704  0.1+  1.3+    050114 104  0.8-  0.2+
041130 118  0.3+  0.0     041216 704  0.1-  0.9+    050114 104  0.6-  0.2+
041130 118  0.6+  0.4-    041216 704  0.1-  1.2+    050114 213  0.1+  0.5+
041130 118  0.2+  0.0     041216 704  0.0   0.5+    050114 213  0.5-  0.2+
041130 118  0.0   0.0     041217 D83  0.1+  1.6-    050114 213  0.5-  0.2+
041203 699  0.5+  0.2-    041217 D83  1.4+  0.5+    050116 201  0.3+  0.2-
041203 699  0.2+  0.1-    041217 D83  0.0   1.6-    050116 201  0.4+  0.5-
041203 699  0.1+  0.0     041217 D83  0.6-  1.0-    050116 201  0.2+  0.3-
041203 699  0.2+  0.5-    041218 349  0.4-  0.1-    050116 A46  0.1+  0.5-
041203 927  1.5+  0.1-    041218 349  0.1+  0.1-    050116 A46  0.7+  0.6-
041204 927  1.1-  0.3-    041218 349  0.3-  0.2-    050116 A46  0.6-  1.0-
041208 360  0.2-  0.1+    041218 213  0.6-  0.2+    050116 A46  0.5+  0.1-
041208 360  0.3-  0.2+    041219 213  0.0   0.0     050116 A46  0.2-  0.6-
041209 703  1.1+  0.6-    041219 A61  0.0   1.3-    050116 A46  0.1-  0.5-
041209 703  0.6+  0.9-    041219 A61 (1.6-  3.1-)   050120 A61  1.4+  1.5-
041209 703  0.3+  0.3-    041219 A61  1.5-  0.3-    050120 A61  1.0+  0.0
041209 703  0.2+  0.7-    041219 J76  0.5-  0.2+    050120 A61 (2.4+  1.3-)
041209 360  0.3-  0.1+    041219 J76  0.2-  0.1+

Brian G. Marsden             (C) Copyright 2005 MPC           M.P.E.C. 2005-B41

Read MPEC 2005-B40 Read MPEC 2005-B42


MPEC number:

Enter an MPEC number in one of the following forms:

  • 1997-B01 (the full form)
  • J97B01 (the packed version of the full form)
  • B01 (the abbreviated form)

Valid HTML 4.01!